Flag for Germany Weather past 2 weeks in Cottbus, Brandenburg, Germany

Now
61 °F

Light rain. Low clouds.


Feels Like: 61 °F
Forecast: 51 / 70 °F
Wind: 5 mph from Northwest

Location: Cottbus

Current Time: Sep 1, 2015 at 11:24:37 PM

Latest Report: Sep 1, 2015 at 11:00 PM


Visibility: 16 mi

Pressure: 29.86 "Hg

Humidity: 96%

Dew point: 60 °F

Location of CottbusLocation

Historic Weather in Cottbus — Graph

°F

Cottbus temperature yesterday

Maximum temperature yesterday: 98 °F (at 4:00 PM)
Minimum temperature yesterday: 64 °F (at 7:00 AM)
Average temperature yesterday: 82 °F

Past Weeks' High & Low Weather Summary

 TemperatureHumidityPressure
High98 °F (Aug 31, 4:00 PM)100% (Sep 1, 7:00 PM)30.31 "Hg (Sep 1, 7:00 PM)
Low47 °F (Aug 22, 6:00 AM)22% (Aug 22, 3:00 PM)29.67 "Hg (Sep 1, 5:00 PM)
Average69 °F65%30.01 "Hg
* Reported Aug 17 10:00 PM — Sep 1 10:00 PM, Cottbus, Weather by CustomWeather, © 2015

Note: Actual official high and low records may vary slightly from our data, if they occured in-between our weather recording intervals... More about our weather records

Advertising

Cottbus weather history for previous 24 hours

 ConditionsComfort  
Time TempWeatherWind HumidityBarometerVisibility
10:00 PM
Tue, Sep 1
62 °FLight rain. Low clouds.5 mph96%29.85 "Hg8 mi
9:00 PM66 °FDrizzle. Low clouds.5 mph98%29.81 "Hg10 mi
8:00 PM67 °FLight rain. Low clouds.5 mph99%29.77 "Hg4 mi
7:00 PM66 °FRain. Low clouds.8 mph100%29.75 "Hg1 mi
6:00 PM85 °FOvercast.2 mph48%29.67 "Hg22 mi
5:00 PM89 °FSunny.2 mph39%29.67 "Hg25 mi
4:00 PM90 °FSunny.3 mph39%29.69 "Hg25 mi
3:00 PM88 °FSunny.2 mph42%29.71 "Hg22 mi
2:00 PM86 °FSunny.2 mph44%29.72 "Hg15 mi
1:00 PM84 °FSunny.1 mph51%29.74 "Hg16 mi
12:00 PM81 °FSunny.3 mph56%29.76 "Hg13 mi
11:00 AM80 °FSunny.2 mph57%29.75 "Hg14 mi
10:00 AM77 °FSunny.3 mph62%29.76 "Hg13 mi
9:00 AM75 °FSunny.2 mph67%29.75 "Hg14 mi
8:00 AM70 °FSunny.2 mph87%29.75 "Hg8 mi
7:00 AM67 °FSunny.1 mph96%29.75 "Hg5 mi
5:00 AM68 °FFog.2 mph97%29.74 "Hg4 mi
4:00 AM70 °FOvercast.2 mph96%29.74 "Hg5 mi
3:00 AM71 °FLow clouds.2 mph88%29.72 "Hg12 mi
2:00 AM80 °FLight rain. Overcast.6 mph61%29.75 "Hg8 mi
1:00 AM74 °FOvercast.1 mph76%29.74 "Hg13 mi
11:00 PM
Mon, Aug 31
76 °FOvercast.1 mph68%29.76 "Hg16 mi
Weather by CustomWeather, © 2015

See weather overviewHow to use our weather pages